When you browse on this site, cookies collect data to enhance your experience and personalize the content and advertising you see.
Visit our Privacy Policy to learn more. By continuing to use the site, you agree to this use of cookies and data.
  • In Hungary
  • List of Countries
  • For 7 days
  • Water Temperature
  • Satellite Maps
  • Weather Map
  • News
  • Weather Widgets
  • user-avatar
    Login

    Hourly Weather Tamar-Utkul

    Today, 22 January, Tuesday

    Time Temperature Precipitation Wind Pressure Humidity
    00:00 -17°C° 0 mm 7 mps 753 mmHg 84%
    01:00 -16°C° 0 mm 8 mps 753 mmHg 81%
    02:00 -15°C° 0.1 mm 8 mps 752 mmHg 81%
    03:00 -15°C° 0.1 mm 8 mps 751 mmHg 82%
    04:00 -14°C° 0 mm 9 mps 750 mmHg 78%
    05:00 -14°C° 0.6 mm 9 mps 750 mmHg 83%
    06:00 -12°C° 0.6 mm 8 mps 749 mmHg 89%
    07:00 -11°C° 0.6 mm 8 mps 748 mmHg 94%
    08:00 -10°C° 0.9 mm 8 mps 748 mmHg 94%
    09:00 -8°C° 0.9 mm 8 mps 748 mmHg 94%
    10:00 -6°C° 0.9 mm 9 mps 747 mmHg 94%
    11:00 -6°C° 0.9 mm 9 mps 747 mmHg 94%
    12:00 -5°C° 0.9 mm 9 mps 747 mmHg 93%
    13:00 -4°C° 0.9 mm 9 mps 747 mmHg 93%
    14:00 -5°C° 0.7 mm 8 mps 747 mmHg 93%
    15:00 -6°C° 0.7 mm 7 mps 747 mmHg 93%
    16:00 -5°C° 0.7 mm 6 mps 748 mmHg 93%
    17:00 -10°C° 0 mm 5 mps 748 mmHg 93%
    18:00 -12°C° 0 mm 4 mps 749 mmHg 94%
    19:00 -15°C° 0 mm 3 mps 749 mmHg 94%
    20:00 -16°C° 0 mm 3 mps 750 mmHg 94%
    21:00 -18°C° 0 mm 3 mps 750 mmHg 95%
    22:00 -19°C° 0 mm 3 mps 751 mmHg 96%
    23:00 -19°C° 0 mm 2 mps 751 mmHg 97%

    Tomorrow, 23 January, Wednesday

    Time Temperature Precipitation Wind Pressure Humidity
    00:00 -20°C° 0 mm 2 mps 752 mmHg 98%
    01:00 -20°C° 0 mm 2 mps 752 mmHg 98%
    02:00 -20°C° 0 mm 2 mps 752 mmHg 99%
    03:00 -21°C° 0 mm 2 mps 753 mmHg 99%
    04:00 -21°C° 0 mm 2 mps 753 mmHg 99%
    05:00 -21°C° 0 mm 2 mps 754 mmHg 99%
    06:00 -21°C° 0 mm 2 mps 754 mmHg 99%
    07:00 -21°C° 0 mm 2 mps 754 mmHg 99%
    08:00 -21°C° 0 mm 2 mps 755 mmHg 99%
    09:00 -21°C° 0 mm 2 mps 755 mmHg 98%
    10:00 -21°C° 0 mm 2 mps 755 mmHg 98%
    11:00 -20°C° 0 mm 2 mps 756 mmHg 97%
    12:00 -19°C° 0 mm 2 mps 756 mmHg 96%
    13:00 -19°C° 0 mm 2 mps 756 mmHg 96%
    14:00 -19°C° 0 mm 2 mps 757 mmHg 96%
    15:00 -20°C° 0 mm 2 mps 757 mmHg 97%
    16:00 -21°C° 0 mm 2 mps 757 mmHg 97%
    17:00 -23°C° 0 mm 2 mps 758 mmHg 98%
    18:00 -24°C° 0 mm 2 mps 758 mmHg 99%
    19:00 -25°C° 0 mm 2 mps 759 mmHg 99%
    20:00 -25°C° 0 mm 2 mps 759 mmHg 99%
    21:00 -25°C° 0 mm 2 mps 759 mmHg 99%
    22:00 -23°C° 0 mm 1 mps 760 mmHg 99%
    23:00 -23°C° 0 mm 1 mps 760 mmHg 99%

    Day after tomorrow, 24 January, Thursday

    Time Temperature Precipitation Wind Pressure Humidity
    00:00 -23°C° 0 mm 1 mps 761 mmHg 98%
    01:00 -24°C° 0 mm 1 mps 761 mmHg 98%
    02:00 -24°C° 0 mm 1 mps 761 mmHg 97%
    03:00 -24°C° 0 mm 1 mps 762 mmHg 96%
    04:00 -24°C° 0 mm 1 mps 762 mmHg 96%
    05:00 -24°C° 0 mm 1 mps 763 mmHg 95%
    06:00 -24°C° 0 mm 1 mps 763 mmHg 94%
    07:00 -24°C° 0 mm 1 mps 763 mmHg 94%
    08:00 -23°C° 0 mm 1 mps 764 mmHg 92%
    09:00 -23°C° 0 mm 1 mps 764 mmHg 91%
    10:00 -22°C° 0 mm 1 mps 764 mmHg 90%
    11:00 -24°C° 0 mm 2 mps 764 mmHg 90%
    12:00 -21°C° 0 mm 2 mps 764 mmHg 89%
    13:00 -20°C° 0 mm 2 mps 764 mmHg 89%
    14:00 -20°C° 0 mm 2 mps 764 mmHg 88%
    15:00 -22°C° 0 mm 3 mps 763 mmHg 88%
    16:00 -21°C° 0 mm 3 mps 763 mmHg 87%
    17:00 -20°C° 0 mm 4 mps 763 mmHg 86%
    18:00 -19°C° 0 mm 4 mps 763 mmHg 84%
    19:00 -19°C° 0 mm 4 mps 763 mmHg 83%
    20:00 -19°C° 0 mm 5 mps 762 mmHg 81%
    21:00 -18°C° 0 mm 5 mps 762 mmHg 80%
    22:00 -17°C° 0 mm 6 mps 761 mmHg 79%
    23:00 -17°C° 0 mm 6 mps 761 mmHg 78%

    25 January, Friday

    Time Temperature Precipitation Wind Pressure Humidity
    00:00 -17°C° 0 mm 6 mps 760 mmHg 78%
    01:00 -16°C° 0 mm 6 mps 760 mmHg 77%
    02:00 -17°C° 0 mm 6 mps 760 mmHg 77%
    03:00 -17°C° 0 mm 6 mps 759 mmHg 77%
    04:00 -17°C° 0 mm 6 mps 759 mmHg 77%
    05:00 -17°C° 0 mm 6 mps 759 mmHg 79%
    06:00 -17°C° 0 mm 6 mps 758 mmHg 80%
    07:00 -17°C° 0 mm 6 mps 758 mmHg 82%
    08:00 -17°C° 0.2 mm 6 mps 758 mmHg 85%
    09:00 -16°C° 0.2 mm 6 mps 758 mmHg 88%
    10:00 -16°C° 0.2 mm 6 mps 758 mmHg 91%
    11:00 -16°C° 0.3 mm 6 mps 757 mmHg 91%
    12:00 -14°C° 0.3 mm 5 mps 757 mmHg 92%
    13:00 -14°C° 0.3 mm 5 mps 757 mmHg 92%
    14:00 -14°C° 0.1 mm 4 mps 757 mmHg 93%
    15:00 -12°C° 0.1 mm 4 mps 757 mmHg 94%
    16:00 -12°C° 0.1 mm 3 mps 757 mmHg 94%
    17:00 -12°C° 0.1 mm 3 mps 757 mmHg 95%
    18:00 -12°C° 0.1 mm 3 mps 757 mmHg 95%
    19:00 -12°C° 0.1 mm 3 mps 757 mmHg 95%
    20:00 -12°C° 0.1 mm 3 mps 757 mmHg 95%
    21:00 -10°C° 0.1 mm 2 mps 757 mmHg 96%
    22:00 -10°C° 0.1 mm 2 mps 757 mmHg 96%
    23:00 -10°C° 0 mm 2 mps 756 mmHg 95%

    26 January, Saturday

    Time Temperature Precipitation Wind Pressure Humidity
    00:00 -12°C° 0 mm 2 mps 756 mmHg 95%
    01:00 -12°C° 0 mm 2 mps 756 mmHg 95%
    02:00 -12°C° 0 mm 2 mps 756 mmHg 95%
    03:00 -13°C° 0 mm 2 mps 756 mmHg 95%
    04:00 -13°C° 0 mm 2 mps 755 mmHg 95%
    05:00 -13°C° 0 mm 2 mps 755 mmHg 95%
    06:00 -12°C° 0 mm 2 mps 755 mmHg 95%
    07:00 -12°C° 0 mm 2 mps 754 mmHg 95%
    08:00 -12°C° 0 mm 2 mps 754 mmHg 95%
    09:00 -10°C° 0 mm 2 mps 754 mmHg 94%
    10:00 -10°C° 0 mm 2 mps 754 mmHg 94%
    11:00 -10°C° 0 mm 3 mps 754 mmHg 93%
    12:00 -9°C° 0 mm 3 mps 753 mmHg 93%
    13:00 -7°C° 0 mm 3 mps 753 mmHg 92%
    14:00 -8°C° 0 mm 3 mps 753 mmHg 92%
    15:00 -8°C° 0 mm 3 mps 752 mmHg 92%
    16:00 -8°C° 0 mm 3 mps 752 mmHg 92%
    17:00 -8°C° 0 mm 3 mps 752 mmHg 92%
    18:00 -8°C° 0 mm 3 mps 752 mmHg 92%
    19:00 -7°C° 0 mm 2 mps 752 mmHg 92%
    20:00 -8°C° 0 mm 3 mps 751 mmHg 92%
    21:00 -8°C° 0 mm 3 mps 751 mmHg 92%
    22:00 -8°C° 0 mm 3 mps 751 mmHg 91%
    23:00 -8°C° 0 mm 3 mps 750 mmHg 91%

    27 January, Sunday

    Time Temperature Precipitation Wind Pressure Humidity
    00:00 -7°C° 0 mm 3 mps 750 mmHg 91%
    01:00 -7°C° 0 mm 3 mps 750 mmHg 91%
    02:00 -6°C° 0 mm 3 mps 749 mmHg 91%
    03:00 -5°C° 0 mm 3 mps 749 mmHg 90%
    04:00 -5°C° 0 mm 3 mps 748 mmHg 90%
    05:00 -5°C° 0 mm 3 mps 748 mmHg 90%
    06:00 -5°C° 0 mm 3 mps 748 mmHg 90%
    07:00 -5°C° 0 mm 4 mps 747 mmHg 90%
    08:00 -6°C° 0 mm 3 mps 747 mmHg 91%
    09:00 -7°C° 0 mm 3 mps 747 mmHg 91%
    10:00 -7°C° 0 mm 3 mps 746 mmHg 91%
    11:00 -6°C° 0 mm 3 mps 746 mmHg 92%
    12:00 -6°C° 0 mm 3 mps 746 mmHg 93%
    13:00 -5°C° 0 mm 3 mps 745 mmHg 93%
    14:00 -5°C° 0 mm 2 mps 745 mmHg 94%
    15:00 -5°C° 0 mm 2 mps 745 mmHg 94%
    16:00 -5°C° 0 mm 2 mps 745 mmHg 95%
    17:00 -4°C° 0 mm 1 mps 745 mmHg 95%
    18:00 -4°C° 0 mm 1 mps 745 mmHg 96%
    19:00 -6°C° 0 mm 1 mps 745 mmHg 96%
    20:00 -4°C° 0 mm 1 mps 745 mmHg 96%
    21:00 -4°C° 0 mm 1 mps 745 mmHg 96%
    22:00 -3°C° 0 mm 1 mps 745 mmHg 96%
    23:00 -3°C° 0 mm 1 mps 745 mmHg 96%
    Show more